Smyrna, TN

6:25 AM CST on February 20, 2018 (GMT -0600)
Smyrna

Weather History for KMQY - January, 2013

Change the Weather History Date:

Monday, January 14, 2013

  Actual Average Record
Temperature  
Mean Temperature 34 °F -  
Max Temperature 37 °F 43 °F 70 °F (2007)
Min Temperature 30 °F 30 °F 8 °F (1997)
Degree Days  
Heating Degree Days 32    
Moisture  
Dew Point 30 °F    
Average Humidity 90    
Maximum Humidity 96    
Minimum Humidity 79    
Precipitation  
Precipitation 0.00 in - - ()
Sea Level Pressure  
Sea Level Pressure 30.30 in    
Wind  
Wind Speed 11 mph (North)    
Max Wind Speed 18 mph    
Max Gust Speed 23 mph    
Visibility 9 miles    
Events Rain    
Averages and records for this station are not official NWS values.
T = Trace of Precipitation, MM = Missing Value Source: NWS Daily Summary

Daily Weather History Graph

Daily Weather History Graph

Search for Another Location

Airport or City:

Trip Planner

Search our weather history database for the weather conditions in past years. The results will help you decide how hot, cold, wet, or windy it might be!

Date:

Astronomy

Jan. 14, 2013 Rise Set
Actual Time 6:56 AM CST 4:54 PM CST
Civil Twilight 6:28 AM CST 5:22 PM CST
Nautical Twilight 5:56 AM CST 5:54 PM CST
Astronomical Twilight 5:25 AM CST 6:24 PM CST
Moon 8:36 AM CST (1/14) 8:31 PM CST (1/14)
Length of Visible Light 10h 54m
Length of Day
9h 58m
Waxing Crescent, 11% of the Moon is Illuminated
Jan 14
Waxing Crescent
Jan 18
First Quarter
Jan 26
Full
Feb 3
Last Quarter
Feb 10
New

Hourly Weather History & Observations

Time (CST) Temp. Windchill Dew Point Humidity Pressure Visibility Wind Dir Wind Speed Gust Speed Precip Events Conditions
12:46 AM 37.4 °F 29.3 °F 33.8 °F 87% 30.25 in 10.0 mi NNE 12.7 mph - N/A   Overcast
12:56 AM 36.0 °F 27.1 °F 34.0 °F 93% 30.25 in 10.0 mi North 13.8 mph - N/A   Overcast
1:29 AM 35.6 °F 27.5 °F 33.8 °F 93% 30.26 in 10.0 mi North 11.5 mph - N/A   Overcast
1:56 AM 36.0 °F 28.0 °F 32.0 °F 86% 30.26 in 10.0 mi NNE 11.5 mph - N/A   Overcast
2:24 AM 35.6 °F 26.6 °F 32.0 °F 87% 30.28 in 10.0 mi North 13.8 mph - N/A   Overcast
2:48 AM 33.8 °F 23.9 °F 30.2 °F 87% 30.28 in 10.0 mi North 15.0 mph - N/A   Overcast
2:56 AM 32.9 °F 24.1 °F 30.0 °F 89% 30.27 in 10.0 mi North 11.5 mph - N/A   Overcast
3:56 AM 32.0 °F 23.0 °F 29.1 °F 89% 30.28 in 10.0 mi North 11.5 mph - N/A   Overcast
4:56 AM 31.1 °F 21.4 °F 28.0 °F 88% 30.29 in 10.0 mi North 12.7 mph - N/A   Overcast
5:56 AM 30.0 °F 19.1 °F 27.1 °F 89% 30.32 in 10.0 mi North 15.0 mph - N/A   Overcast
6:56 AM 30.0 °F 19.1 °F 26.1 °F 85% 30.35 in 10.0 mi North 15.0 mph - N/A   Overcast
7:56 AM 30.0 °F 20.5 °F 26.1 °F 85% 30.36 in 10.0 mi North 11.5 mph - N/A   Overcast
8:56 AM 30.0 °F 20.0 °F 26.1 °F 85% 30.33 in 10.0 mi NNE 12.7 mph - N/A   Overcast
9:56 AM 31.1 °F 22.4 °F 27.1 °F 85% 30.34 in 10.0 mi NE 10.4 mph - N/A   Overcast
10:56 AM 32.9 °F 24.1 °F 28.0 °F 82% 30.32 in 10.0 mi North 11.5 mph - N/A   Overcast
11:56 AM 32.9 °F 24.1 °F 28.0 °F 82% 30.27 in 10.0 mi North 11.5 mph - N/A   Overcast
12:56 PM 32.9 °F 24.1 °F 28.0 °F 82% 30.25 in 10.0 mi North 11.5 mph - N/A   Overcast
1:56 PM 32.9 °F 21.6 °F 27.1 °F 79% 30.36 in 10.0 mi NNW 18.4 mph 23.0 mph N/A   Overcast
2:56 PM 32.0 °F 20.5 °F 27.1 °F 82% 30.34 in 10.0 mi North 18.4 mph - 0.00 in Rain Rain
3:56 PM 31.1 °F 21.4 °F 28.0 °F 88% 30.34 in 7.0 mi North 12.7 mph - 0.00 in Rain Light Freezing Rain
4:56 PM 31.1 °F 25.4 °F 29.1 °F 92% 30.38 in 2.5 mi North 5.8 mph - 0.00 in Rain Light Freezing Rain
5:05 PM 30.2 °F 23.4 °F 28.4 °F 93% 30.35 in 3.0 mi NE 6.9 mph - 0.00 in Rain Light Freezing Rain
5:10 PM 30.2 °F 23.4 °F 28.4 °F 93% 30.34 in 4.0 mi NE 6.9 mph - 0.00 in Rain Light Freezing Rain
5:56 PM 32.0 °F 26.4 °F 30.0 °F 92% 30.34 in 10.0 mi NE 5.8 mph - 0.00 in Rain Rain
6:56 PM 32.0 °F 25.6 °F 30.0 °F 92% 30.34 in 10.0 mi NNE 6.9 mph - 0.00 in   Mostly Cloudy
7:05 PM 32.0 °F 26.4 °F 30.2 °F 93% 30.33 in 10.0 mi North 5.8 mph - 0.00 in Rain Light Freezing Rain
7:14 PM 32.0 °F 24.8 °F 30.2 °F 93% 30.33 in 10.0 mi North 8.1 mph - 0.00 in Rain Light Freezing Rain
7:29 PM 32.0 °F 27.5 °F 30.2 °F 93% 30.31 in 10.0 mi NNE 4.6 mph - 0.00 in   Mostly Cloudy
7:56 PM 32.0 °F 25.6 °F 31.1 °F 96% 30.31 in 9.0 mi North 6.9 mph - 0.00 in Rain Light Freezing Rain
8:07 PM 32.0 °F 24.8 °F 30.2 °F 93% 30.29 in 10.0 mi North 8.1 mph - 0.00 in Rain Light Freezing Rain
8:56 PM 32.0 °F 25.6 °F 31.1 °F 96% 30.29 in 10.0 mi North 6.9 mph - 0.00 in Rain Light Freezing Rain
9:27 PM 32.0 °F 24.8 °F 30.2 °F 93% 30.27 in 10.0 mi North 8.1 mph - 0.00 in Rain Light Freezing Rain
9:56 PM 32.0 °F 24.2 °F 31.1 °F 96% 30.26 in 9.0 mi North 9.2 mph - 0.00 in Rain Light Freezing Rain
10:06 PM 32.0 °F 24.2 °F 30.2 °F 93% 30.26 in 9.0 mi North 9.2 mph - 0.00 in   Overcast
10:26 PM 32.0 °F 23.0 °F 30.2 °F 93% 30.25 in 9.0 mi North 11.5 mph - 0.00 in   Overcast
10:56 PM 32.0 °F 24.8 °F 31.1 °F 96% 30.25 in 9.0 mi North 8.1 mph - 0.00 in   Overcast
11:56 PM 32.0 °F 25.6 °F 31.1 °F 96% 30.25 in 8.0 mi North 6.9 mph - N/A   Overcast